TELSTAR 19V

Last updated on Dec. 14, 2019, 4:30 a.m. UTC

1 43562U 18059A   19347.86455654 -.00000264  00000-0  00000-0 0  9993
2 43562   0.0153   1.1547 0002209 232.4763  96.8449  1.00268643  5318
UTC
Height (km)
Latitude
Longitude
Inclination
Orbital Period
UTC large
Height (km)
Speed (km/s)
/
Latitude / Longitude
Inclination (degrees)
Orbital Period (minutes)
Azimuth
Elevation
Range (km)
Doppler Factor
iOS Compass Heading
iOS Angle

Next 30 passes for location: Hong Kong

Rise time Rise Azimuth (degrees) Set time Set Azimuth (degrees) Duration Max altitude (degrees)

No matching passes for this satellites